Location: *
(46.1833°N, 22.7667°E)
Time: 15:50:15
(UTC+00:00)

Nadezhda 1 Rocket - Pass Details

Date: 17 September 2019
Orbit: 942 x 1005 km, 83.0° (Epoch: 18 October)

Event Time Altitude Azimuth Distance (km) Brightness Sun altitude
Rises 17:19:19 0° 171° (S) 3,598 6.8 -8.0°
Reaches altitude 10° 17:21:51 10° 167° (SSE) 2,654 6.0 -8.5°
Maximum altitude 17:27:42 54° 92° (E) 1,139 4.0 -9.4°
Drops below altitude 10° 17:33:36 10° 17° (NNE) 2,675 6.3 -10.4°
Sets 17:36:09 0° 13° (NNE) 3,629 7.0 -10.9°
